Location: Coatesville
(39.9830°N, 75.8240°W)
Time: 07:13:35
(UTC-04:00)

N. Korean satellite - Visible Passes

Search period start: 23 October 2019 00:00
Search period end: 02 November 2019 00:00
Orbit: 455 x 508 km, 97.2° (Epoch: 22 October)

Date Brightness Start Highest point End Pass type
(mag) Time Alt. Az. Time Alt. Az. Time Alt. Az.
23 Oct 10.4 05:53:09 10° ENE 05:54:29 12° E 05:55:48 10° ESE visible
24 Oct 10.0 19:08:41 10° SW 19:10:46 15° W 19:12:53 10° NW visible
25 Oct 8.3 06:34:00 10° NNE 06:37:28 39° E 06:40:57 10° S visible
25 Oct 8.7 18:42:13 10° SSW 18:45:19 32° W 18:48:28 10° NNW visible
26 Oct 9.7 06:09:21 10° NE 06:12:03 19° E 06:14:45 10° SE visible
28 Oct 7.0 06:51:15 10° NNE 06:54:56 70° E 06:58:37 10° S visible
28 Oct 9.7 19:00:17 10° SW 19:02:49 19° W 19:05:23 10° NW visible
29 Oct 8.8 06:26:14 10° NNE 06:29:34 31° E 06:32:54 10° SSE visible
29 Oct 8.1 18:34:06 10° S 18:37:22 41° W 18:40:43 10° NNW visible
30 Oct 10.0 06:01:48 10° NE 06:04:07 16° E 06:06:25 10° SE visible
31 Oct 10.2 19:19:04 10° WSW 19:20:20 12° W 19:21:37 10° WNW visible
01 Nov 7.5 06:43:22 10° NNE 06:47:01 54° E 06:50:40 10° S visible
01 Nov 9.2 18:51:56 10° SSW 18:54:49 24° W 18:57:44 10° NW visible
